Location: Bucaral
(10.5128°N, 67.0901°W)
Time: 06:24:53
(UTC+00:00)

USA 229 - Pass Details

Date: 18 April 2024
Orbit: 890 x 1322 km, 63.4° (Epoch: 18 May)

Event Time Altitude Azimuth Distance (km) Brightness Sun altitude
Rises 23:15:22 0° 186° (S) 3,505 6.3 -9.5°
Reaches altitude 10° 23:18:02 10° 178° (S) 2,551 5.5 -10.1°
Maximum altitude 23:23:24 38° 112° (ESE) 1,336 3.8 -11.4°
Drops below altitude 10° 23:28:52 10° 45° (NE) 2,604 5.4 -12.7°
Sets 23:31:37 0° 38° (NE) 3,587 6.2 -13.3°
